Location: *
(44.3925°N, 5.4708°E)
Time: 22:30:46
(UTC+00:00)

Meteor 1-15 Rocket - Pass Details

Date: 18 September 2019
Orbit: 840 x 907 km, 81.2° (Epoch: 16 October)

Event Time Altitude Azimuth Distance (km) Brightness Sun altitude
Rises 19:01:35 0° 175° (S) 3,440 7.1 -14.5°
Reaches altitude 10° 19:04:01 10° 171° (S) 2,517 6.4 -14.9°
Maximum altitude 19:09:36 56° 95° (E) 1,049 4.3 -15.8°
Drops below altitude 10° 19:15:19 10° 19° (NNE) 2,577 6.7 -16.8°
Sets 19:17:50 0° 15° (NNE) 3,529 7.5 -17.2°
